Regional Weather Roundup
Issued by NWS Nashville, TN

Home | Current Version | Previous Version | Text Only | Print | Product List | Glossary On
Versions: 1 2 3 4 5 6 7 8 9 10 11 12 13 14 15 16 17 18 19 20 21 22 23 24 25 26 27 28
000
ASUS44 KOHX 200710
RWROHX
MIDDLE TENNESSEE HOURLY WEATHER ROUNDUP
NATIONAL WEATHER SERVICE NASHVILLE TN
100 AM CST SAT JAN 20 2018

NOTE: "FAIR" INDICATES FEW OR NO CLOUDS BELOW 12,000 FEET WITH
NO SIGNIFICANT WEATHER AND/OR OBSTRUCTIONS TO VISIBILITY.

* THESE REPORTS ARE NOT UNDER NWS QUALITY CONTROL AND MAY NOT
  REPORT WEATHER SUCH AS PRECIPITATION AND FOG.


TNZ005>011-023>034-057-059-062>066-078-080-200800
...NORTHERN MIDDLE TENNESSEE...

CITY           SKY/WX    TMP DP  RH WIND       PRES   REMARKS
CLARKSVILLE    MOCLDY    43  18  36 SW12      30.12S
CROSSVILLE     CLOUDY    39  26  59 S6        30.18F WCI  35
GALLATIN       CLOUDY    43  23  45 S5        30.18F
DICKSON          N/A     42  23  47 SW8       30.13S
NASHVILLE      CLOUDY    45  25  45 S8        30.17S
PORTLAND       CLOUDY    41  25  52 S13G18    30.13S
SMYRNA         CLOUDY    43  24  47 S7        30.19S
SPARTA         CLOUDY    43  25  49 S6        30.18S
SPRINGFIELD    CLOUDY    43  23  45 S13       30.11S
WEST NASHVILLE CLOUDY    45  25  45 S8        30.14F
$$
TNZ056-058-060-061-075>077-079-093>097-200800
...SOUTHERN MIDDLE TENNESSEE...

CITY           SKY/WX    TMP DP  RH WIND       PRES   REMARKS
COLUMBIA       CLOUDY    45  23  42 S13       30.16F
FAYETTEVILLE   CLOUDY    43  21  42 S7        30.20S
MCMINNVILLE    CLOUDY    43  21  42 SW6       30.19F
PULASKI        CLOUDY    45  25  45 S5        30.21R
SHELBYVILLE    CLOUDY    43  23  45 S8        30.19F
TULLAHOMA      CLOUDY    41  19  42 S5        30.19S
WINCHESTER     CLOUDY    39  25  56 SE3       30.22R
$$


...KEY TO REMARKS...
VSB - VISIBILITY IN MILES
WCI - WIND CHILL INDEX
HX  - HEAT INDEX





USA.gov is the U.S. government's official web portal to all federal, state and local government web resources and services.